Date String (YYYY-MM-DD hh:mm:ss) UTC,Instrument flags,Ambient pressure (hPa),Sample flow (lpm),Bypass flow (lpm),Sample temperature (°C),Ambient temperature (°C),ASC tube jacket temperature (°C),LED temperature (°C),Box temperature (°C),Sample RH (%),Span deviation,Mass concentration (μg/m³),Mass concentration (μg/m³),Mass concentration (μg/m³)
DateTimeUTC,F1_M11,P_M11,Q1_M11,Q2_M11,T1_M11,T2_M11,T3_M11,T4_M11,T5_M11,U1_M11,ZSPAN_M11,X0_M11,X2_M11,X1_M11
2022-04-18 08:00:00,,0834.6,5.00,0.00,25.3,24.4,00.0,34.2,27.1,08.6,0000.0,0009.81,0002.76,0001.18
2022-04-18 08:01:00,,0834.6,4.99,0.00,25.3,24.4,00.0,34.2,27.1,08.6,0000.0,0009.47,0002.76,0001.18
2022-04-18 08:02:00,,0834.6,4.99,0.00,25.3,24.4,00.0,34.2,27.1,08.6,0000.0,0009.42,0002.73,0001.18
2022-04-18 08:03:00,,0834.5,5.00,0.00,25.3,24.4,00.0,34.2,27.1,08.6,0000.0,0009.09,0002.70,0001.18
2022-04-18 08:04:00,,0834.5,5.00,0.00,25.3,24.4,00.0,34.2,27.1,08.5,0000.0,0009.02,0002.66,0001.18
2022-04-18 08:05:00,,0834.6,5.00,0.00,25.3,24.4,00.0,34.2,27.1,08.5,0000.0,0009.10,0002.65,0001.19
2022-04-18 08:06:00,,0834.6,5.00,0.00,25.3,24.3,00.0,34.2,27.1,08.5,0000.0,0009.11,0002.57,0001.17
2022-04-18 08:07:00,,0834.5,5.00,0.00,25.3,24.3,00.0,34.2,27.1,08.5,0000.0,0008.91,0002.57,0001.15
2022-04-18 08:08:00,,0834.5,5.00,0.00,25.3,24.3,00.0,34.2,27.1,08.5,0000.0,0009.24,0002.47,0001.14
2022-04-18 08:09:00,,0834.4,5.00,0.00,25.3,24.3,00.0,34.2,27.1,08.6,0000.0,0008.80,0002.41,0001.13
2022-04-18 08:10:00,,0834.4,5.00,0.00,25.3,24.3,00.0,34.2,27.1,08.6,0000.0,0008.18,0002.42,0001.13
2022-04-18 08:11:00,,0834.4,5.00,0.00,25.3,24.3,00.0,34.2,27.1,08.6,0000.0,0008.21,0002.40,0001.13
2022-04-18 08:12:00,,0834.3,5.00,0.00,25.3,24.3,00.0,34.2,27.1,08.6,0000.0,0008.25,0002.40,0001.13
2022-04-18 08:13:00,,0834.4,5.00,0.00,25.3,24.3,00.0,34.2,27.1,08.6,0000.0,0008.26,0002.37,0001.14
2022-04-18 08:14:00,,0834.3,5.00,0.00,25.3,24.3,00.0,34.2,27.1,08.5,0000.0,0009.44,0002.36,0001.13
2022-04-18 08:15:00,,0834.2,5.00,0.00,25.3,24.3,00.0,34.2,27.1,08.5,0000.0,0009.38,0002.36,0001.13
2022-04-18 08:16:00,,0834.2,4.99,0.00,25.3,24.3,00.0,34.2,27.1,08.5,0000.0,0009.11,0002.33,0001.13
2022-04-18 08:17:00,,0834.1,5.00,0.00,25.3,24.3,00.0,34.2,27.1,08.5,0000.0,0008.39,0002.30,0001.13
2022-04-18 08:18:00,,0834.2,5.00,0.00,25.3,24.3,00.0,34.2,27.1,08.6,0000.0,0008.22,0002.29,0001.14
2022-04-18 08:19:00,,0834.2,4.99,0.00,25.3,24.3,00.0,34.2,27.1,08.6,0000.0,0008.21,0002.30,0001.14
2022-04-18 08:20:00,,0834.2,4.99,0.00,25.2,24.3,00.0,34.2,27.1,08.6,0000.0,0008.28,0002.33,0001.14
2022-04-18 08:21:00,,0834.3,5.00,0.00,25.2,24.3,00.0,34.2,27.1,08.6,0000.0,0008.36,0002.35,0001.14
2022-04-18 08:22:00,,0834.2,5.00,0.00,25.2,24.3,00.0,34.1,27.1,08.6,0000.0,0008.35,0002.36,0001.14
2022-04-18 08:23:00,,0834.2,5.00,0.00,25.2,24.3,00.0,34.2,27.1,08.7,0000.0,0008.43,0002.37,0001.13
2022-04-18 08:24:00,,0834.3,4.99,0.00,25.2,24.2,00.0,34.1,27.1,08.7,0000.0,0008.39,0002.36,0001.13
2022-04-18 08:25:00,,0834.3,5.00,0.00,25.2,24.2,00.0,34.1,27.0,08.7,0000.0,0007.72,0002.45,0001.15
2022-04-18 08:26:00,,0834.2,5.00,0.00,25.2,24.2,00.0,34.1,27.0,08.7,0000.0,0007.65,0002.45,0001.15
2022-04-18 08:27:00,,0834.1,5.00,0.00,25.2,24.2,00.0,34.1,27.0,08.7,0000.0,0007.80,0002.39,0001.14
2022-04-18 08:28:00,,0834.1,5.01,0.00,25.2,24.2,00.0,34.1,27.0,08.7,0000.0,0008.30,0002.48,0001.16
2022-04-18 08:29:00,,0834.0,5.00,0.00,25.2,24.2,00.0,34.1,27.0,08.7,0000.0,0008.95,0002.54,0001.17
2022-04-18 08:30:00,,0834.0,5.01,0.00,25.2,24.2,00.0,34.1,27.0,08.7,0000.0,0008.36,0002.50,0001.16
2022-04-18 08:31:00,,0834.0,5.00,0.00,25.2,24.2,00.0,34.1,27.0,08.7,0000.0,0008.08,0002.48,0001.17
2022-04-18 08:32:00,,0834.0,4.99,0.00,25.2,24.2,00.0,34.1,27.0,08.7,0000.0,0007.92,0002.44,0001.17
2022-04-18 08:33:00,,0834.0,5.00,0.00,25.2,24.2,00.0,34.1,27.0,08.7,0000.0,0007.92,0002.43,0001.18
2022-04-18 08:34:00,,0834.0,4.99,0.00,25.2,24.2,00.0,34.1,27.0,08.7,0000.0,0007.72,0002.37,0001.17
2022-04-18 08:35:00,,0834.0,5.00,0.00,25.2,24.2,00.0,34.1,27.0,08.7,0000.0,0007.64,0002.30,0001.16
2022-04-18 08:36:00,,0834.0,5.00,0.00,25.2,24.2,00.0,34.1,27.0,08.7,0000.0,0008.01,0002.20,0001.15
2022-04-18 08:37:00,,0834.0,5.00,0.00,25.2,24.2,00.0,34.1,27.0,08.7,0000.0,0008.41,0002.21,0001.16
2022-04-18 08:38:00,,0833.9,5.00,0.00,25.2,24.2,00.0,34.1,27.0,08.7,0000.0,0008.88,0002.23,0001.16
2022-04-18 08:39:00,,0833.9,5.01,0.00,25.1,24.2,00.0,34.1,26.9,08.7,0000.0,0008.80,0002.16,0001.15
2022-04-18 08:40:00,,0833.8,5.00,0.00,25.1,24.2,00.0,34.1,26.9,08.7,0000.0,0009.02,0002.09,0001.14
2022-04-18 08:41:00,,0834.0,5.01,0.00,25.1,24.2,00.0,34.1,26.9,08.6,0000.0,0010.16,0002.12,0001.15
2022-04-18 08:42:00,,0834.0,5.00,0.00,25.1,24.1,00.0,34.1,26.9,08.7,0000.0,0010.35,0002.15,0001.15
2022-04-18 08:43:00,,0834.0,5.00,0.00,25.1,24.1,00.0,34.0,26.9,08.7,0000.0,0010.65,0002.25,0001.15
2022-04-18 08:44:00,,0834.0,4.99,0.00,25.1,24.1,00.0,34.0,26.9,08.7,0000.0,0010.99,0002.26,0001.15
2022-04-18 08:45:00,,0834.1,5.00,0.00,25.1,24.1,00.0,34.0,26.9,08.7,0000.0,0011.36,0002.27,0001.16
2022-04-18 08:46:00,,0834.1,5.00,0.00,25.1,24.1,00.0,34.0,26.9,08.7,0000.0,0011.72,0002.39,0001.19
2022-04-18 08:47:00,,0834.1,5.01,0.00,25.1,24.1,00.0,34.0,26.9,08.7,0000.0,0011.07,0002.46,0001.19
2022-04-18 08:48:00,,0834.1,5.00,0.00,25.1,24.1,00.0,34.0,26.9,08.7,0000.0,0011.26,0002.52,0001.19
2022-04-18 08:49:00,,0834.0,5.00,0.00,25.1,24.1,00.0,34.0,26.9,08.7,0000.0,0011.49,0002.53,0001.19
2022-04-18 08:50:00,,0834.0,5.00,0.00,25.1,24.1,00.0,34.0,26.9,08.8,0000.0,0011.35,0002.61,0001.19
2022-04-18 08:51:00,,0834.1,5.00,0.00,25.1,24.1,00.0,34.0,26.9,08.8,0000.0,0010.88,0002.67,0001.19
2022-04-18 08:52:00,,0834.0,4.99,0.00,25.1,24.1,00.0,34.0,26.9,08.8,0000.0,0009.56,0002.62,0001.19
2022-04-18 08:53:00,,0834.1,5.00,0.00,25.1,24.0,00.0,34.0,26.9,08.8,0000.0,0009.59,0002.60,0001.19
2022-04-18 08:54:00,,0834.1,4.99,0.00,25.0,24.0,00.0,34.0,26.9,08.8,0000.0,0009.36,0002.54,0001.19
2022-04-18 08:55:00,,0834.0,5.00,0.00,25.0,24.0,00.0,34.0,26.9,08.8,0000.0,0009.41,0002.54,0001.19
2022-04-18 08:56:00,,0834.0,5.00,0.00,25.0,24.0,00.0,34.0,26.8,08.8,0000.0,0009.37,0002.62,0001.19
2022-04-18 08:57:00,,0834.0,5.00,0.00,25.0,24.0,00.0,34.0,26.8,08.8,0000.0,0009.22,0002.63,0001.18
2022-04-18 08:58:00,,0834.0,5.01,0.00,25.0,24.0,00.0,34.0,26.8,08.8,0000.0,0009.00,0002.62,0001.18
2022-04-18 08:59:00,,0834.0,5.00,0.00,25.0,24.0,00.0,33.9,26.8,08.8,0000.0,0008.66,0002.57,0001.18
